Flag for U.S.A. Weather past 2 weeks in Moreno Valley, California, U.S.A.

Now
76 °F

Clear.


Feels Like: 78 °F
Forecast: 73 / 98 °F
Wind: 3 mph from Southwest

Location: Riverside / March Air Force Base

Current Time: Sep 16, 2014 at 4:35:59 AM

Latest Report: Sep 16, 2014 at 3:58 AM


Visibility: 10 mi

Pressure: 29.78 "Hg

Humidity: 43%

Dew point: 52 °F

Location of Moreno ValleyLocation

Historic Weather in Moreno Valley — Graph

°F

Moreno Valley temperature yesterday

Maximum temperature yesterday: 106 °F (at 1:58 PM)
Minimum temperature yesterday: 72 °F (at 5:58 AM)
Average temperature yesterday: 88 °F

Past Weeks' High & Low Weather Summary

 TemperatureHumidityPressure
High106 °F (Sep 15, 1:58 PM)100% (Sep 2, 6:58 AM)29.98 "Hg (Sep 2, 6:58 AM)
Low59 °F (Sep 10, 4:58 AM)8% (Sep 1, 2:58 PM)29.68 "Hg (Sep 14, 3:58 PM)
Average80 °F46%29.81 "Hg
* Reported Sep 1 2:58 AM — Sep 16 2:58 AM, Moreno Valley, Weather by CustomWeather, © 2014

Note: Actual official high and low records may vary slightly from our data, if they occured in-between our weather recording intervals... More about our weather records

Advertising

Moreno Valley weather history for previous 24 hours

 ConditionsComfort  
Time TempWeatherWind HumidityBarometerVisibility
2:58 AM
Sep 16
75 °FClear.No wind46%29.79 "Hg10 mi
1:58 AM76 °FClear.No wind43%29.80 "Hg10 mi
12:58 AM78 °FClear.1 mph39%29.80 "Hg10 mi
11:58 PM
Sep 15
78 °FClear.2 mph37%29.80 "Hg10 mi
10:58 PM80 °FClear.No wind36%29.81 "Hg10 mi
9:58 PM85 °FClear.No wind31%29.80 "Hg10 mi
8:58 PM88 °FClear.No wind28%29.79 "Hg10 mi
7:58 PM91 °FPassing clouds.8 mph27%29.78 "Hg10 mi
6:58 PM93 °FSunny.9 mph26%29.75 "Hg10 mi
5:58 PM97 °FSunny.17 mph22%29.74 "Hg10 mi
4:58 PM101 °FSunny.20 mph21%29.72 "Hg10 mi
3:58 PM104 °FSunny.16 mph20%29.72 "Hg10 mi
2:58 PM105 °FSunny.8 mph15%29.73 "Hg10 mi
1:58 PM106 °FSunny.7 mph15%29.75 "Hg10 mi
12:58 PM103 °FSunny.7 mph16%29.78 "Hg10 mi
11:58 AM102 °FSunny.1 mph16%29.80 "Hg10 mi
10:58 AM98 °FSunny.3 mph23%29.81 "Hg10 mi
9:58 AM93 °FSunny.3 mph26%29.82 "Hg10 mi
8:58 AM87 °FSunny.2 mph33%29.82 "Hg10 mi
7:58 AM79 °FSunny.No wind43%29.83 "Hg10 mi
6:58 AM72 °FClear.No wind48%29.82 "Hg10 mi
5:58 AM72 °FClear.No wind45%29.81 "Hg10 mi
4:58 AM75 °FClear.No wind43%29.78 "Hg10 mi
Weather by CustomWeather, © 2014

See weather overviewHow to use our weather pages